Location: Godzisko
(49.9648°N, 19.4576°E)
Time: 01:50:41
(UTC+00:00)

GP-B - Pass Details

Date: 20 April 2021
Orbit: 631 x 635 km, 89.8° (Epoch: 08 May)

Event Time Altitude Azimuth Distance (km) Brightness Sun altitude
Rises 02:56:06 0° 359° (N) 2,940 6.9 -7.2°
Reaches altitude 10° 02:58:20 10° 358° (N) 2,027 6.1 -6.9°
Maximum altitude 03:02:46 74° 274° (W) 661 3.1 -6.2°
Drops below altitude 10° 03:07:10 10° 190° (S) 2,008 5.4 -5.6°
Sets 03:09:23 0° 188° (S) 2,911 6.2 -5.3°
